Waarnemingen

Advertentie
Mijn weer
Altnaharra, Groot Brittannië (3044): temperatuur & dauwpunt: 19.02.2018 17:00:00 - 25.02.2018 17:00:00 (GMT)Altnaharra, Groot Brittannië (3044): temperatuur -20cm & temperatuur -100cm: 19.02.2018 17:00:00 - 25.02.2018 17:00:00 (GMT)Altnaharra, Groot Brittannië (3044): windsnelheid & windstoten: 19.02.2018 17:00:00 - 25.02.2018 17:00:00 (GMT)Altnaharra, Groot Brittannië (3044): windrichting: 19.02.2018 17:00:00 - 25.02.2018 17:00:00 (GMT)Altnaharra, Groot Brittannië (3044): luchtdruk: 19.02.2018 17:00:00 - 25.02.2018 17:00:00 (GMT)Altnaharra, Groot Brittannië (3044): zicht: 19.02.2018 17:00:00 - 25.02.2018 17:00:00 (GMT)Altnaharra, Groot Brittannië (3044): Zonneschijnduur: 19.02.2018 17:00:00 - 25.02.2018 17:00:00 (GMT)Altnaharra, Groot Brittannië (3044): neerslag: 19.02.2018 17:00:00 - 25.02.2018 17:00:00 (GMT)
Datum & Tijd tt [°C] td [°C] tt -20cm [°C] tt -100cm [°C] ff [km/u] ff [kn] fx [km/u] fx [kn] dd ppp [hPa] vv [km] sd [min] rr [mm]
25.02.2018 17:00:00 4,8 -4,1 - - 5 3 - - ZO 1031,0 35 60 0,0
25.02.2018 16:00:00 6,9 -5,3 - - 8 4 - - OZO 1030,4 45 60 0,0
25.02.2018 15:00:00 6,8 -4,7 - - 11 6 - - O 1030,2 35 60 0,0
25.02.2018 14:00:00 8,1 -3,6 - - 4 2 - - WZW 1030,1 50 60 0,0
25.02.2018 13:00:00 5,9 -4,1 - - 5 3 - - OZO 1030,2 26 60 0,0
25.02.2018 12:00:00 4,1 -3,3 - - 8 4 - - OZO 1030,5 30 60 0,0
25.02.2018 11:00:00 2,8 -2,6 - - 4 2 - - N 1030,5 30 60 0,0
25.02.2018 10:00:00 -0,2 -2,5 - - 4 2 - - ZO 1030,6 29 60 0,0
25.02.2018 09:00:00 -3,0 -3,8 2,7 4,0 4 2 - - ZO 1030,6 16 60 0,0
25.02.2018 08:00:00 -6,9 -7,8 - - 4 2 - - OZO 1030,4 29 6 0,0
25.02.2018 07:00:00 -6,7 -7,6 - - 2 1 - - OZO 1030,2 20 0 0,0
25.02.2018 06:00:00 -6,3 -7,3 - - 4 2 - - NW 1029,7 18 0 0,0
25.02.2018 05:00:00 -5,6 -6,9 - - 4 2 - - ONO 1029,3 18 0 0,0
25.02.2018 04:00:00 -4,2 -6,1 - - 2 1 - - ZZO 1028,9 24 0 0,0
25.02.2018 03:00:00 -2,4 -4,8 - - 4 2 - - WZW 1028,4 26 0 0,0
25.02.2018 02:00:00 -2,4 -4,8 - - 4 2 - - WZW 1028,4 26 0 0,0
25.02.2018 01:00:00 -1,9 -4,2 - - 9 5 - - W 1027,7 30 0 0,0
25.02.2018 00:00:00 -2,6 -5,4 - - 8 4 - - NW 1027,9 30 - 0,0
24.02.2018 23:00:00 -2,0 -4,9 - - 9 5 - - WNW 1027,8 24 0 0,0
24.02.2018 22:00:00 -1,1 -4,8 - - 9 5 - - WNW 1027,5 35 0 0,0
24.02.2018 21:00:00 -1,0 -4,9 - - 8 4 - - NW 1027,2 22 0 0,0
24.02.2018 20:00:00 -0,6 -5,1 - - 9 5 - - NW 1026,8 30 0 0,0
24.02.2018 19:00:00 0,8 -5,0 - - 11 6 - - NW 1026,4 50 0 0,0
24.02.2018 18:00:00 0,4 -5,3 - - 5 3 - - N 1025,9 45 0 0,0
24.02.2018 17:00:00 3,2 -4,3 - - 9 5 - - N 1025,1 50 12 0,0
24.02.2018 16:00:00 4,7 -5,5 - - 9 5 - - ZW 1025,0 50 0 0,0
24.02.2018 15:00:00 5,7 -7,5 - - 9 5 - - WZW 1024,5 45 30 0,0
24.02.2018 14:00:00 6,7 -5,4 - - 11 6 - - O 1024,0 35 60 0,0
24.02.2018 13:00:00 6,4 -5,4 - - 24 13 46 25 ZO 1023,7 45 60 0,0
24.02.2018 12:00:00 5,0 -6,5 - - 9 5 - - O 1023,8 30 60 0,0
24.02.2018 11:00:00 4,4 -6,5 - - 15 8 - - ONO - 30 36 0,0
24.02.2018 10:00:00 3,9 -7,1 - - 18 10 50 27 O 1023,1 50 24 0,0
24.02.2018 09:00:00 3,2 -5,9 2,9 4,0 15 8 - - NO 1022,7 40 54 0,0
24.02.2018 08:00:00 2,2 -6,3 - - 15 8 48 26 O 1022,1 50 0 0,0
24.02.2018 07:00:00 1,5 -4,6 - - 9 5 - - OZO 1021,3 50 0 0,0
24.02.2018 06:00:00 1,2 -4,6 - - 13 7 - - ZO 1020,9 45 0 0,0
24.02.2018 05:00:00 1,5 -4,3 - - 13 7 - - OZO 1020,6 50 0 0,0
24.02.2018 04:00:00 2,5 -4,0 - - 18 10 - - O 1020,3 50 0 0,0
24.02.2018 03:00:00 1,6 -3,1 - - 9 5 - - O 1019,7 45 0 0,0
24.02.2018 02:00:00 2,3 -2,8 - - 16 9 54 29 O 1019,3 45 0 0,0
24.02.2018 01:00:00 3,0 -3,3 - - 18 10 - - OZO 1019,4 50 0 0,0
24.02.2018 00:00:00 2,6 -3,0 - - 9 5 - - NNO 1019,4 45 - 0,0
23.02.2018 23:00:00 2,7 -3,3 - - 22 12 52 28 OZO 1019,2 45 0 0,0
23.02.2018 22:00:00 2,3 -3,2 - - 11 6 - - ONO 1018,9 40 0 0,0
23.02.2018 21:00:00 2,8 -3,1 - - 13 7 48 26 Z 1018,6 45 0 0,0
23.02.2018 20:00:00 3,2 -4,2 - - 9 5 - - N 1018,5 45 0 0,0
23.02.2018 19:00:00 3,2 -3,7 - - 18 10 - - ZO 1018,7 45 0 0,0
23.02.2018 18:00:00 3,5 -3,9 - - 13 7 - - ZO 1018,1 40 0 0,0
23.02.2018 17:00:00 4,4 -3,4 - - 5 3 - - OZO 1018,1 29 60 0,0
23.02.2018 16:00:00 5,3 -2,7 - - 18 10 - - ZZO 1018,1 30 60 0,0
23.02.2018 15:00:00 5,4 -2,4 - - 22 12 - - ZZO 1018,1 22 60 0,0
23.02.2018 14:00:00 5,5 -1,3 - - 15 8 - - ZZO 1018,3 19 60 0,0
23.02.2018 13:00:00 4,8 -1,1 - - 22 12 - - ZO 1018,5 17 60 0,0
23.02.2018 12:00:00 4,5 -1,2 - - 18 10 - - ZO 1018,6 26 60 0,0
23.02.2018 11:00:00 4,2 -1,7 - - 15 8 - - ZZO 1018,6 35 60 0,0
23.02.2018 10:00:00 3,3 -0,9 - - 11 6 - - ZZO 1018,6 27 60 0,0
23.02.2018 09:00:00 -0,5 -1,3 3,0 4,2 5 3 - - WNW 1018,7 29 12 0,0
23.02.2018 08:00:00 -2,2 -3,4 - - 5 3 - - NNO 1018,7 18 0 0,0
23.02.2018 07:00:00 -0,7 -2,1 - - 4 2 - - NNW 1018,6 26 0 0,0
23.02.2018 06:00:00 0,4 -1,9 - - 4 2 - - W 1018,6 28 0 0,0
23.02.2018 05:00:00 1,3 -1,9 - - 11 6 - - N 1018,3 45 0 0,0
23.02.2018 04:00:00 4,0 -1,1 - - 8 4 - - ZW 1018,4 45 0 0,0
23.02.2018 03:00:00 3,1 -0,8 - - 13 7 - - NW 1018,4 45 0 0,0
23.02.2018 02:00:00 2,2 -1,7 - - 8 4 - - NNW 1018,6 45 0 0,0
23.02.2018 01:00:00 3,9 -1,0 - - 21 11 - - Z 1018,6 45 0 0,0
23.02.2018 00:00:00 3,6 -0,8 - - 16 9 - - ZZO 1018,3 45 - 0,0
22.02.2018 23:00:00 4,2 -0,2 - - 26 14 - - ZO 1018,1 50 0 0,0
22.02.2018 22:00:00 4,3 -0,4 - - 22 12 - - ZO 1018,4 40 0 0,0
22.02.2018 21:00:00 4,7 -0,2 - - 21 11 - - ZO 1018,5 50 0 0,0
22.02.2018 20:00:00 4,7 0,2 - - 24 13 - - ZO 1018,5 45 0 0,0
22.02.2018 19:00:00 4,8 0,0 - - 24 13 - - ZO 1018,5 50 0 0,0
22.02.2018 18:00:00 5,1 -0,2 - - 16 9 - - OZO 1018,8 50 0 0,0
22.02.2018 17:00:00 5,7 -0,2 - - 21 11 - - ZO 1018,6 50 0 0,0
22.02.2018 16:00:00 5,6 0,0 - - 21 11 - - ZO 1018,7 50 0 0,0
22.02.2018 15:00:00 5,9 0,2 - - 15 8 - - ZO 1019,1 50 0 0,0
22.02.2018 14:00:00 6,0 -0,4 - - 18 10 - - ZO 1019,3 50 24 0,0
22.02.2018 13:00:00 6,8 -0,2 - - 26 14 - - OZO 1019,5 45 60 0,0
22.02.2018 12:00:00 6,8 -0,3 - - 11 6 - - ZO 1020,0 40 36 0,0
22.02.2018 11:00:00 4,2 -1,0 - - 16 9 - - ZO 1020,6 35 24 0,0
22.02.2018 10:00:00 3,7 -0,5 - - 21 11 - - OZO 1021,1 25 42 0,0
22.02.2018 09:00:00 4,0 -1,1 3,0 4,0 21 11 - - ZO 1021,2 26 12 0,0
22.02.2018 08:00:00 3,4 -1,3 - - 5 3 - - O 1021,7 40 0 0,0
22.02.2018 07:00:00 2,6 -1,2 - - 8 4 - - NNW 1022,0 30 0 0,0
22.02.2018 06:00:00 3,7 -1,3 - - 9 5 - - ZZO 1022,2 35 0 0,0
22.02.2018 05:00:00 3,8 -1,1 - - 11 6 - - Z 1022,5 35 0 0,0
22.02.2018 04:00:00 4,1 -0,9 - - 16 9 - - Z 1023,0 35 0 0,0
22.02.2018 03:00:00 4,0 -0,6 - - 16 9 - - Z 1023,5 30 0 0,0
22.02.2018 02:00:00 2,7 0,1 - - 5 3 - - WZW 1024,1 30 0 0,0
22.02.2018 01:00:00 1,5 -0,3 - - 9 5 - - N - 23 0 0,0
22.02.2018 00:00:00 1,6 -0,4 - - 5 3 - - NNW 1025,1 24 - 0,0
21.02.2018 23:00:00 0,6 -1,2 - - 9 5 - - NW 1025,5 19 0 0,0
21.02.2018 22:00:00 0,7 -0,9 - - 4 2 - - W 1025,5 18 0 0,0
21.02.2018 21:00:00 2,0 -1,4 - - 8 4 - - ZZO 1025,7 22 0 0,0
21.02.2018 20:00:00 1,3 -0,7 - - 4 2 - - ZZO 1026,2 29 0 0,0
21.02.2018 19:00:00 0,5 -2,0 - - 4 2 - - ZW 1026,3 22 0 0,0
21.02.2018 18:00:00 1,5 -1,0 - - 4 2 - - O 1026,4 18 0 0,0
21.02.2018 17:00:00 5,0 -0,3 - - 9 5 - - OZO 1026,4 26 54 0,0
21.02.2018 16:00:00 6,9 0,1 - - 11 6 - - ZZO 1026,3 25 60 0,0
21.02.2018 15:00:00 7,5 0,8 - - 13 7 - - Z 1026,7 27 60 0,0
21.02.2018 14:00:00 7,5 0,8 - - 9 5 - - OZO 1027,3 27 60 0,0
21.02.2018 13:00:00 7,0 2,6 - - 9 5 - - ZZW 1028,1 25 60 0,0
21.02.2018 12:00:00 4,6 3,0 - - 2 1 - - W 1028,6 13 60 0,2
21.02.2018 11:00:00 2,1 1,4 - - 4 2 - - WNW 1029,1 12 60 0,0
21.02.2018 10:00:00 -0,3 -0,7 - - 8 4 - - OZO 1029,9 15 60 0,0
21.02.2018 09:00:00 -2,5 -2,8 3,7 4,0 4 2 - - ZO 1030,2 11 30 0,0
21.02.2018 08:00:00 -4,8 -5,2 - - 0 0 - - N 1030,1 13 0 0,0
21.02.2018 07:00:00 -5,0 -5,4 - - 2 1 - - WNW 1030,0 15 0 0,0
21.02.2018 06:00:00 -4,1 -4,5 - - 2 1 - - W 1030,0 12 0 0,0
21.02.2018 05:00:00 -3,6 -4,0 - - 4 2 - - NW 1030,0 14 0 0,0
21.02.2018 04:00:00 -3,7 -4,1 - - 4 2 - - NW 1030,1 14 0 0,0
21.02.2018 03:00:00 -3,6 -3,9 - - 5 3 - - NNW 1030,3 14 0 0,0
21.02.2018 02:00:00 -2,7 -3,1 - - 2 1 - - OZO 1030,5 13 0 0,0
21.02.2018 01:00:00 -1,9 -2,2 - - 8 4 - - W 1030,6 11 0 0,0
21.02.2018 00:00:00 -2,5 -3,0 - - 4 2 - - NW 1030,7 15 - 0,0
20.02.2018 23:00:00 -2,0 -2,5 - - 0 0 - - N 1030,2 11 0 0,0
20.02.2018 22:00:00 -1,3 -1,9 - - 4 2 - - NW 1030,0 12 0 0,0
20.02.2018 21:00:00 -0,8 -1,6 - - 0 0 - - N 1029,8 12 0 0,0
20.02.2018 20:00:00 0,2 -0,5 - - 5 3 - - W 1029,3 13 0 0,0
20.02.2018 19:00:00 0,6 -0,6 - - 8 4 - - OZO 1029,3 13 0 0,0
20.02.2018 18:00:00 1,5 -0,1 - - 9 5 - - W 1028,4 14 0 0,0
20.02.2018 17:00:00 4,9 2,6 - - 16 9 - - W 1027,6 17 36 0,0
20.02.2018 16:00:00 7,3 3,5 - - 18 10 - - WNW 1026,9 15 54 0,0
20.02.2018 15:00:00 5,5 3,1 - - 16 9 - - W 1026,9 16 12 0,6
20.02.2018 14:00:00 6,6 3,7 - - 15 8 - - W 1026,4 9 0 0,0
20.02.2018 13:00:00 7,0 3,6 - - 13 7 - - WZW 1026,2 19 0 0,0
20.02.2018 12:00:00 6,0 3,1 - - 16 9 - - WZW 1025,6 19 30 0,0
20.02.2018 11:00:00 7,5 4,1 - - 13 7 - - W 1024,3 18 30 0,0
20.02.2018 10:00:00 7,0 4,4 - - 8 4 - - WZW 1024,0 15 30 0,0
20.02.2018 09:00:00 4,7 3,6 3,7 4,0 2 1 - - ZW 1023,3 13 18 0,0
20.02.2018 08:00:00 2,3 1,9 - - 8 4 - - WZW 1022,7 21 0 0,8
20.02.2018 07:00:00 2,9 2,6 - - 2 1 - - W 1021,7 15 0 0,4
20.02.2018 06:00:00 1,6 0,9 - - 9 5 - - W 1020,8 4,8 0 0,0
20.02.2018 05:00:00 2,8 2,0 - - 4 2 - - WZW 1019,8 15 0 0,0
20.02.2018 04:00:00 4,2 2,9 - - 21 11 - - WZW 1018,8 26 0 0,0
20.02.2018 03:00:00 3,0 2,0 - - 13 7 - - WZW 1018,5 18 0 0,4
20.02.2018 02:00:00 4,5 3,7 - - 5 3 - - ZW 1017,9 18 0 0,0
20.02.2018 01:00:00 4,2 3,3 - - 4 2 - - ZW 1017,7 24 0 0,4
20.02.2018 00:00:00 4,8 3,6 - - 8 4 - - W 1017,8 22 - 0,4
19.02.2018 23:00:00 5,3 3,9 - - 8 4 - - WZW 1017,2 30 0 1,8
19.02.2018 22:00:00 5,8 4,2 - - 13 7 - - WZW 1016,9 13 0 0,6
19.02.2018 21:00:00 6,4 5,4 - - 24 13 - - W 1016,0 9 0 0,6
19.02.2018 20:00:00 8,8 7,4 - - 13 7 - - ZZW 1015,2 11 0 0,0
19.02.2018 19:00:00 8,7 6,8 - - 11 6 - - ZZW 1014,9 30 0 0,0
19.02.2018 18:00:00 9,1 7,1 - - 9 5 - - Z 1014,7 24 0 0,0
19.02.2018 17:00:00 9,4 7,2 - - 8 4 - - Z 1014,6 22 0 0,0

tt = temperatuur
td = dauwpunt
tt -20cm = temperatuur -20cm
tt -100cm = temperatuur -100cm
ff = windsnelheid
fx = windstoten
dd = windrichting
ppp = luchtdruk
vv = zicht
sd = Zonneschijnduur
rr = neerslag

Weerstations in de omgeving